Weather History for George, South Africa

Change the Weather History Date:

Saturday, July 20, 2013

  Actual Average Record
Temperature  
Mean Temperature 57 °F -  
Max Temperature 65 °F 64 °F 71 °F (2006)
Min Temperature 49 °F 45 °F 41 °F (1996)
Degree Days  
Heating Degree Days 8    
Growing Degree Days 7 (Base 50)    
Moisture  
Dew Point 47 °F    
Average Humidity 69    
Maximum Humidity 82    
Minimum Humidity 43    
Precipitation  
Precipitation 0.01 in - - ()
Sea Level Pressure  
Sea Level Pressure 30.22 in    
Wind  
Wind Speed 11 mph ()    
Max Wind Speed 24 mph    
Max Gust Speed 37 mph    
Visibility 8.0 miles    
Events      
Averages and records for this station are not official NWS values.
T = Trace of Precipitation, MM = Missing Value Source: Averaged Metar Reports

Daily Weather History Graph

Daily Weather History Graph

Search for Another Location

Airport:

Trip Planner

Search our weather history database for the weather conditions in past years. The results will help you decide how hot, cold, wet, or windy it might be!

Date:

Astronomy

Jul. 20, 2013 Rise Set
Actual Time 7:31 AM SAST 5:42 PM SAST
Civil Twilight 7:04 AM SAST 6:09 PM SAST
Nautical Twilight 6:33 AM SAST 6:40 PM SAST
Astronomical Twilight 6:03 AM SAST 7:10 PM SAST
Moon 3:27 PM SAST (7/20) 4:52 AM SAST (7/20)
Length of Visible Light 11h 05m
Length of Day
10h 11m
Waxing Gibbous, 92% of the Moon is Illuminated
Jul 20
Waxing Gibbous
Jul 22
Full
Jul 29
Last Quarter
Aug 6
New
Aug 14
First Quarter

Hourly Weather History & Observations

Time (SAST) Temp. Dew Point Humidity Pressure Visibility Wind Dir Wind Speed Gust Speed Precip Events Conditions
12:00 AM 55.4 °F 48.2 °F 77% 30.12 in 6.2 mi WNW 13.8 mph - N/A   Scattered Clouds
1:00 AM 55.4 °F 48.2 °F 77% 30.12 in 6.2 mi WNW 13.8 mph - N/A   Mostly Cloudy
2:00 AM 53 °F 47 °F 72% 30.15 in 19 mi WNW 8.1 mph - -  
2:00 AM 51.8 °F 46.4 °F 82% 30.12 in 6.2 mi WNW 8.1 mph - N/A   Partly Cloudy
3:00 AM 50.0 °F 44.6 °F 82% 30.12 in - WNW 8.1 mph - N/A   Clear
5:00 AM 50 °F 44 °F 73% 30.14 in 12 mi WNW 8.1 mph - -   Scattered Clouds
5:00 AM 50.0 °F 44.6 °F 82% 30.12 in - WNW 8.1 mph - N/A   Clear
6:00 AM 50.0 °F 42.8 °F 76% 30.12 in 6.2 mi WNW 8.1 mph - N/A   Scattered Clouds
7:00 AM 55.4 °F 46.4 °F 72% 30.15 in 6.2 mi West 15.0 mph - N/A   Mostly Cloudy
8:00 AM 53 °F 45 °F 67% 30.17 in 12 mi WNW 10.4 mph - -   Scattered Clouds
8:00 AM 53.6 °F 44.6 °F 72% 30.15 in 6.2 mi WNW 10.4 mph - N/A   Partly Cloudy
9:00 AM 57.2 °F 46.4 °F 67% 30.18 in 6.2 mi WNW 11.5 mph - N/A   Partly Cloudy
10:00 AM 60.8 °F 46.4 °F 59% 30.21 in 6.2 mi West 16.1 mph - N/A   Partly Cloudy
11:00 AM 63 °F 49 °F 49% 30.24 in 12 mi West 16.1 mph - -   Partly Cloudy
11:00 AM 62.6 °F 48.2 °F 59% 30.21 in 6.2 mi West 16.1 mph - N/A   Scattered Clouds
12:00 PM 62.6 °F 46.4 °F 55% 30.21 in 6.2 mi West 20.7 mph - N/A   Scattered Clouds
1:00 PM 62.6 °F 44.6 °F 52% 30.21 in 6.2 mi West 24.2 mph 36.8 mph N/A   Mostly Cloudy
2:00 PM 63 °F 46 °F 43% 30.23 in 12 mi West 23.0 mph - -   Mostly Cloudy
2:00 PM 62.6 °F 46.4 °F 55% 30.21 in 6.2 mi West 24.2 mph - N/A   Mostly Cloudy
3:00 PM 60.8 °F 48.2 °F 63% 30.21 in 6.2 mi West 21.9 mph - N/A   Mostly Cloudy
4:00 PM 62.6 °F 50.0 °F 63% 30.24 in 6.2 mi West 19.6 mph - N/A   Mostly Cloudy
5:00 PM 57 °F 51 °F 73% 30.29 in 12 mi WSW 13.8 mph - -   Mostly Cloudy
5:00 PM 57.2 °F 50.0 °F 77% 30.27 in 6.2 mi WSW 15.0 mph - N/A   Mostly Cloudy
6:00 PM 57.2 °F 50.0 °F 77% 30.30 in 6.2 mi West 11.5 mph - N/A   Mostly Cloudy
7:00 PM 55.4 °F 48.2 °F 77% 30.30 in 6.2 mi West 10.4 mph - N/A   Mostly Cloudy
8:00 PM 56 °F 49 °F 69% 30.35 in 12 mi West 5.8 mph - -   Mostly Cloudy
8:00 PM 55.4 °F 48.2 °F 77% 30.33 in 6.2 mi West 5.8 mph - N/A   Mostly Cloudy
9:00 PM 55.4 °F 48.2 °F 77% 30.36 in 6.2 mi West 10.4 mph - N/A   Mostly Cloudy
10:00 PM 55.4 °F 48.2 °F 77% 30.36 in 6.2 mi WNW 9.2 mph - N/A   Mostly Cloudy
11:00 PM 53.6 °F 46.4 °F 77% 30.39 in - WNW 10.4 mph - N/A   Clear